Flag for U.S.A. Weather past 2 weeks in St. Louis, Missouri, U.S.A.

Now
82 °F

Scattered clouds.


Feels Like: 84 °F
Forecast: 68 / 84 °F
Wind: 8 mph from Southwest

Location: Lambert-St. Louis International Airport

Current Time: May 29, 2015 at 12:01:42 PM

Latest Report: May 29, 2015 at 10:51 AM


Visibility: 10 mi

Pressure: 30.01 "Hg

Humidity: 58%

Dew point: 66 °F

Location of St. LouisLocation

Historic Weather in St. Louis — Graph

°F

St. Louis temperature yesterday

Maximum temperature yesterday: 84 °F (at 12:51 PM)
Minimum temperature yesterday: 64 °F (at 3:51 AM)
Average temperature yesterday: 75 °F

Past Weeks' High & Low Weather Summary

 TemperatureHumidityPressure
High85 °F (May 15, 11:51 AM)90% (May 18, 5:51 AM)30.31 "Hg (May 18, 5:51 AM)
Low47 °F (May 21, 5:51 AM)35% (May 23, 1:51 PM)29.80 "Hg (May 26, 5:51 AM)
Average70 °F64%30.05 "Hg
* Reported May 14 10:51 AM — May 29 10:51 AM, St. Louis, Weather by CustomWeather, © 2015

Note: Actual official high and low records may vary slightly from our data, if they occured in-between our weather recording intervals... More about our weather records

Advertising

St. Louis weather history for previous 24 hours

 ConditionsComfort  
Time TempWeatherWind HumidityBarometerVisibility
10:51 AM
Fri, May 29
82 °FScattered clouds.8 mph58%30.01 "Hg10 mi
9:51 AM80 °FBroken clouds.8 mph62%30.01 "Hg10 mi
8:51 AM78 °FBroken clouds.8 mph69%30.01 "Hg10 mi
7:51 AM76 °FBroken clouds.12 mph72%29.99 "Hg10 mi
6:51 AM73 °FMostly cloudy.10 mph79%29.99 "Hg10 mi
5:51 AM72 °FMostly cloudy.8 mph78%29.97 "Hg10 mi
4:51 AM72 °FPartly cloudy.9 mph78%29.96 "Hg10 mi
3:51 AM73 °FPartly cloudy.10 mph74%29.96 "Hg10 mi
2:51 AM74 °FOvercast.12 mph71%29.96 "Hg10 mi
1:51 AM74 °FMostly cloudy.8 mph71%29.99 "Hg10 mi
12:51 AM74 °FPassing clouds.10 mph71%30.01 "Hg10 mi
11:51 PM
Thu, May 28
75 °FPassing clouds.9 mph69%30.01 "Hg10 mi
10:51 PM76 °FPassing clouds.10 mph64%30.01 "Hg10 mi
9:51 PM77 °FPassing clouds.10 mph64%30.00 "Hg10 mi
8:51 PM79 °FBroken clouds.12 mph60%30.01 "Hg10 mi
7:51 PM81 °FBroken clouds.12 mph58%30.01 "Hg10 mi
6:51 PM82 °FBroken clouds.10 mph56%30.01 "Hg10 mi
5:51 PM84 °FBroken clouds.10 mph55%30.01 "Hg10 mi
4:51 PM82 °FBroken clouds.8 mph60%30.03 "Hg10 mi
3:51 PM73 °FLight rain. Partly sunny.7 mph79%30.06 "Hg10 mi
2:51 PM83 °FBroken clouds.9 mph50%30.07 "Hg10 mi
1:51 PM84 °FPartly sunny.9 mph55%30.08 "Hg10 mi
12:51 PM84 °FBroken clouds.7 mph57%30.10 "Hg10 mi
Weather by CustomWeather, © 2015

See weather overviewHow to use our weather pages